THOR ABLESTAR DEB, 544

Orbit data source: Space-Track

THOR ABLESTAR DEB, 544 is space debris in LEO originally from a launch on Thu, 29 Jun 1961 UTC launched from the Air Force Eastern Test Range (AFETR). Debris objects in space refer to the collection of defunct objects orbiting the Earth. Examples of debris include non-operational satellites, rocket bodies, and fragments generated from explosions, collisions, or faulty payload assembly.

Loading next visibility...
Identifier
544, 1961-015GD
Orbit
LEO
Country
Flag of USUS
Related business
Manufacturer
Unknown
Mission
Spacecraft
Bus & Motor
Unknown
Mass
Unknown
Launch date (UTC)
1961-06-29 (64 years ago)
Launch vehicle
Unknown
Launch site
Air Force Eastern Test Range (AFETR)
Object type
Payload
Rocket body
Debris
Shape & HBR
Unknown shape, 0.1 m
Radar Cross Section
Small (<0.1 m²)

Expand to show TLE details & history
Last TLE update: 14 hours ago

TLE from 14 hours ago
0 THOR ABLESTAR DEB
1 00544U 61015GD  25293.77298965  .00000206  00000-0  35372-3 0  9991
2 00544  66.8752  49.6764 0179820  64.5524  85.1659 13.56044484169142
Epoch: 2025-10-20T18:33Z
TLE epoch observation values (Epoch: 2025-10-20T18:33:06.305Z)
Latitude
25.82733°
Longitude
-89.93664°
Altitude
1,043.517 km
Speed
7.337 km/s
True Right ascension
14h 31m 14s
True Declination
25° 41' 52"
Sunlit
Object was in daylight at epoch
Visualization orbit readout
Latitude
Unknown
Longitude
Unknown
Altitude
Unknown
Speed
Unknown
Apparent Right ascension
Unknown
Apparent Declination
Unknown
Sunlit
N/A
Visualization observer readout
Local Sidereal Time
03:39:58
Azimuth
Unknown
Elevation
Unknown
Doppler factor
Unknown
Orbital elements
Apogee altitude
1,182.06 km
Perigee altitude
914.968 km
Semi-major axis
7,426.651 km
Eccentricity
0.01798
Inclination
66.8752°
RAAN
49.6764°
Arg. of periapsis
64.5524°
True anomaly
87.22261°
Mean anomaly
85.1659°
Eccentric anomaly
86.19392°
Mean motion
3.3912 °/min
Orbital period
106.16 mins
BSTAR
0.00035372
Loading maneuver chart data...
Computing Atmospheric mass density...

Documentation

Showing up to 5 results
|